Weather History for Paganella, Italy

Change the Weather History Date:

Tuesday, October 8, 2013

  Actual Average Record
Temperature  
Mean Temperature 43 °F -  
Max Temperature 46 °F 41 °F 50 °F (1997)
Min Temperature 40 °F 33 °F 24 °F (2000)
Degree Days  
Heating Degree Days 22    
Moisture  
Dew Point 40 °F    
Average Humidity 91    
Maximum Humidity 100    
Minimum Humidity 72    
Precipitation  
Precipitation 0.01 in 0.09 in - ()
Sea Level Pressure  
Sea Level Pressure 30.26 in    
Wind  
Wind Speed 2 mph ()    
Max Wind Speed 7 mph    
Max Gust Speed -    
Visibility 1.6 miles    
Events Fog , Rain    
Averages and records for this station are not official NWS values.
T = Trace of Precipitation, MM = Missing Value Source: Averaged Metar Reports

Daily Weather History Graph

Daily Weather History Graph

Search for Another Location

Airport:

Trip Planner

Search our weather history database for the weather conditions in past years. The results will help you decide how hot, cold, wet, or windy it might be!

Date:

Astronomy

Oct. 08, 2013 Rise Set
Actual Time 7:23 AM CEST 6:42 PM CEST
Civil Twilight 6:53 AM CEST 7:12 PM CEST
Nautical Twilight 6:18 AM CEST 7:47 PM CEST
Astronomical Twilight 5:43 AM CEST 8:21 PM CEST
Moon 11:11 AM CEST (10/8) 8:51 PM CEST (10/8)
Length of Visible Light 12h 18m
Length of Day
11h 19m
Waxing Crescent, 14% of the Moon is Illuminated
Oct 8
Waxing Crescent
Oct 12
First Quarter
Oct 19
Full
Oct 27
Last Quarter
Nov 3
New

Hourly Weather History & Observations

Time (CEST) Temp. Windchill Dew Point Humidity Pressure Visibility Wind Dir Wind Speed Gust Speed Precip Events Conditions
12:55 AM 41.0 °F - 39.2 °F 93% 30.30 in 0.4 mi North 2.3 mph - N/A Fog Fog
1:55 AM 41.0 °F 39.0 °F 41.0 °F 100% 30.30 in 0.0 mi North 3.5 mph - N/A Fog Fog
2:00 AM 41 °F - 40 °F 96%  in 0 mi North 3.5 mph - - Fog Heavy Fog
2:55 AM 41.0 °F 38.0 °F 41.0 °F 100% 30.30 in 0.0 mi NNW 4.6 mph - N/A Fog Fog
3:55 AM 41.0 °F - 41.0 °F 100% 30.27 in 0.0 mi North 2.3 mph - N/A Fog Fog
4:55 AM 41.0 °F - 41.0 °F 100% 30.27 in 0.0 mi North 2.3 mph - N/A Fog , Rain Light Rain
5:00 AM 41 °F - 41 °F 100%  in 0 mi North 2.3 mph - - Rain Light Rain
5:55 AM 41.0 °F - 41.0 °F 100% 30.27 in 0.0 mi North 2.3 mph - N/A Fog , Rain Light Rain
6:55 AM 41.0 °F 39.0 °F 41.0 °F 100% 30.27 in 0.0 mi North 3.5 mph - N/A Fog , Rain Light Rain
7:55 AM 41.0 °F - 41.0 °F 100% 30.24 in 0.0 mi Calm Calm - N/A Fog , Rain Light Rain
8:00 AM 40 °F - 40 °F 100%  in 0 mi Calm Calm - - Rain Light Rain
8:55 AM 41.0 °F 37.1 °F 41.0 °F 100% 30.27 in 0.0 mi North 5.8 mph - N/A Fog Fog
9:55 AM 41.0 °F 36.4 °F 41.0 °F 100% 30.27 in 0.0 mi NNE 6.9 mph - N/A Fog Fog
10:55 AM 41.0 °F - 41.0 °F 100% 30.27 in 0.4 mi Calm Calm - N/A Fog Fog
11:00 AM 41 °F - 41 °F 98%  in 0 mi Calm Calm - - Fog Heavy Fog
11:55 AM 42.8 °F - 42.8 °F 100% 30.27 in 6.2 mi Calm Calm - N/A   Mostly Cloudy
1:55 PM 44.6 °F - 42.8 °F 93% 30.27 in 0.6 mi Calm Calm - N/A Fog Fog
2:00 PM 45 °F - 42 °F 86%  in 1 mi Calm Calm - - Fog Heavy Fog
2:55 PM 44.6 °F 40.7 °F 41.0 °F 87% 30.27 in 0.6 mi South 6.9 mph - N/A Fog Fog
3:55 PM 44.6 °F 40.7 °F 41.0 °F 87% 30.24 in 0.6 mi SSW 6.9 mph - N/A Fog Fog
4:55 PM 46.4 °F 43.5 °F 41.0 °F 81% 30.24 in 0.6 mi SSW 5.8 mph - N/A Fog Fog
5:00 PM 46 °F - 40 °F 74%  in 1 mi SSW 5.8 mph - - Fog Heavy Fog
5:55 PM 44.6 °F - 39.2 °F 81% 30.24 in 6.2 mi SSW 2.3 mph - N/A   Scattered Clouds
6:55 PM 42.8 °F 40.1 °F 35.6 °F 76% 30.24 in 6.2 mi NNW 4.6 mph - N/A   Scattered Clouds
7:55 PM 42.8 °F 41.1 °F 37.4 °F 81% 30.24 in 6.2 mi NNW 3.5 mph - N/A   Scattered Clouds
8:00 PM 43 °F - 37 °F 72%  in 11 mi NNW 3.5 mph - -   Partly Cloudy
8:55 PM 42.8 °F - 37.4 °F 81% 30.24 in 6.2 mi NNW 2.3 mph - N/A   Scattered Clouds
9:55 PM 42.8 °F - 39.2 °F 87% 30.24 in 0.6 mi NNW 2.3 mph - N/A Fog , Rain Light Rain
10:55 PM 42.8 °F - 39.2 °F 87% 30.24 in 0.6 mi Calm Calm - N/A Fog , Rain Light Rain
11:00 PM 42 °F - 39 °F 84%  in 1 mi Calm Calm - - Rain Light Rain
11:55 PM 42.8 °F - 39.2 °F 87% 30.24 in 0.6 mi Calm Calm - N/A Fog , Rain Light Rain